• In Hungary
  • List of Countries
  • For 7 days
  • Water Temperature
  • Satellite Maps
  • Weather Map
  • News
  • Weather Widgets
  • user-avatar
    Login

    Hourly Weather Komovi

    Today, 18 January, Thursday

    Time Temperature Precipitation Wind Pressure Humidity
    00:00 -4°C° 0 mm 6 mps 677 mmHg 71%
    01:00 -4°C° 0 mm 6 mps 678 mmHg 69%
    02:00 -5°C° 0 mm 6 mps 679 mmHg 70%
    03:00 -5°C° 0 mm 6 mps 679 mmHg 70%
    04:00 -6°C° 0 mm 5 mps 680 mmHg 70%
    05:00 -6°C° 0 mm 5 mps 681 mmHg 70%
    06:00 -6°C° 0 mm 5 mps 681 mmHg 70%
    07:00 -6°C° 0 mm 5 mps 682 mmHg 69%
    08:00 -5°C° 0 mm 5 mps 683 mmHg 63%
    09:00 -2°C° 0 mm 5 mps 683 mmHg 58%
    10:00 -1°C° 0 mm 5 mps 684 mmHg 52%
    11:00 0°C° 0 mm 5 mps 684 mmHg 50%
    12:00 0°C° 0 mm 4 mps 685 mmHg 48%
    13:00 +1°C° 0 mm 4 mps 685 mmHg 46%
    14:00 +1°C° 0 mm 3 mps 685 mmHg 50%
    15:00 +2°C° 0 mm 2 mps 684 mmHg 54%
    16:00 +2°C° 0 mm 1 mps 684 mmHg 58%
    17:00 +2°C° 0 mm 1 mps 684 mmHg 59%
    18:00 +1°C° 0 mm 1 mps 684 mmHg 60%
    19:00 0°C° 0 mm 1 mps 684 mmHg 61%
    20:00 0°C° 0 mm 1 mps 684 mmHg 62%
    21:00 -2°C° 0 mm 2 mps 684 mmHg 62%
    22:00 -2°C° 0 mm 2 mps 684 mmHg 63%
    23:00 -2°C° 0 mm 2 mps 684 mmHg 64%

    Tomorrow, 19 January, Friday

    Time Temperature Precipitation Wind Pressure Humidity
    00:00 -2°C° 0 mm 2 mps 684 mmHg 65%
    01:00 -2°C° 0 mm 3 mps 684 mmHg 66%
    02:00 -2°C° 0 mm 3 mps 683 mmHg 67%
    03:00 -2°C° 0 mm 3 mps 683 mmHg 68%
    04:00 -2°C° 0 mm 3 mps 683 mmHg 69%
    05:00 -2°C° 0 mm 3 mps 683 mmHg 71%
    06:00 -2°C° 0 mm 3 mps 683 mmHg 74%
    07:00 -2°C° 0 mm 3 mps 683 mmHg 76%
    08:00 -1°C° 0 mm 3 mps 683 mmHg 77%
    09:00 0°C° 0 mm 3 mps 683 mmHg 77%
    10:00 +2°C° 0 mm 3 mps 683 mmHg 78%
    11:00 +2°C° 0.1 mm 3 mps 683 mmHg 80%
    12:00 +2°C° 0.1 mm 3 mps 682 mmHg 83%
    13:00 +2°C° 0.1 mm 3 mps 682 mmHg 85%
    14:00 +2°C° 0.3 mm 3 mps 682 mmHg 88%
    15:00 +1°C° 0.3 mm 3 mps 681 mmHg 90%
    16:00 +1°C° 0.3 mm 3 mps 681 mmHg 93%
    17:00 +1°C° 0.9 mm 3 mps 681 mmHg 93%
    18:00 +1°C° 0.9 mm 4 mps 681 mmHg 94%
    19:00 +1°C° 0.9 mm 4 mps 681 mmHg 95%
    20:00 +1°C° 1.3 mm 4 mps 681 mmHg 95%
    21:00 +3°C° 1.3 mm 4 mps 681 mmHg 95%
    22:00 +2°C° 1.3 mm 5 mps 681 mmHg 95%
    23:00 +2°C° 1.2 mm 5 mps 681 mmHg 95%

    Day after tomorrow, 20 January, Saturday

    Time Temperature Precipitation Wind Pressure Humidity
    00:00 +3°C° 1.2 mm 5 mps 681 mmHg 96%
    01:00 +3°C° 1.2 mm 6 mps 681 mmHg 96%
    02:00 +3°C° 1.1 mm 5 mps 681 mmHg 96%
    03:00 +3°C° 1.1 mm 4 mps 681 mmHg 96%
    04:00 +3°C° 1.1 mm 3 mps 681 mmHg 96%
    05:00 +4°C° 0.5 mm 2 mps 681 mmHg 96%
    06:00 +4°C° 0.5 mm 2 mps 682 mmHg 96%
    07:00 +4°C° 0.5 mm 2 mps 682 mmHg 96%
    08:00 +4°C° 0.5 mm 2 mps 681 mmHg 96%
    09:00 +4°C° 0.5 mm 2 mps 681 mmHg 96%
    10:00 +5°C° 0.5 mm 2 mps 681 mmHg 95%
    11:00 +4°C° 1.1 mm 3 mps 681 mmHg 95%
    12:00 +4°C° 1.1 mm 3 mps 680 mmHg 95%
    13:00 +4°C° 1.1 mm 3 mps 679 mmHg 95%
    14:00 +4°C° 1.1 mm 3 mps 679 mmHg 95%
    15:00 +4°C° 1.1 mm 3 mps 679 mmHg 94%
    16:00 +4°C° 1.1 mm 3 mps 679 mmHg 94%
    17:00 +3°C° 0.9 mm 3 mps 679 mmHg 94%
    18:00 +3°C° 0.9 mm 3 mps 679 mmHg 94%
    19:00 +3°C° 0.9 mm 3 mps 679 mmHg 94%
    20:00 +3°C° 0.2 mm 2 mps 680 mmHg 94%
    21:00 +2°C° 0.2 mm 2 mps 680 mmHg 94%
    22:00 +2°C° 0.2 mm 2 mps 680 mmHg 93%
    23:00 +2°C° 0 mm 2 mps 680 mmHg 92%

    21 January, Sunday

    Time Temperature Precipitation Wind Pressure Humidity
    00:00 +3°C° 0 mm 1 mps 680 mmHg 92%
    01:00 +2°C° 0 mm 1 mps 680 mmHg 91%
    02:00 +2°C° 0 mm 1 mps 680 mmHg 90%
    03:00 +2°C° 0 mm 1 mps 680 mmHg 90%
    04:00 +1°C° 0 mm 2 mps 680 mmHg 90%
    05:00 +1°C° 0 mm 2 mps 679 mmHg 87%
    06:00 +1°C° 0 mm 2 mps 679 mmHg 85%
    07:00 +1°C° 0 mm 2 mps 679 mmHg 82%
    08:00 +2°C° 0 mm 2 mps 679 mmHg 78%
    09:00 +2°C° 0 mm 2 mps 679 mmHg 73%
    10:00 +4°C° 0 mm 1 mps 679 mmHg 69%
    11:00 +3°C° 0.4 mm 2 mps 679 mmHg 72%
    12:00 +3°C° 0.4 mm 2 mps 679 mmHg 74%
    13:00 +1°C° 0.4 mm 3 mps 679 mmHg 77%
    14:00 +1°C° 0.4 mm 3 mps 679 mmHg 79%
    15:00 0°C° 0.4 mm 4 mps 679 mmHg 81%
    16:00 -1°C° 0.4 mm 4 mps 680 mmHg 83%
    17:00 -2°C° 0 mm 5 mps 680 mmHg 80%
    18:00 -4°C° 0 mm 5 mps 681 mmHg 78%
    19:00 -5°C° 0 mm 6 mps 681 mmHg 75%
    20:00 -5°C° 0 mm 6 mps 682 mmHg 75%
    21:00 -6°C° 0 mm 6 mps 682 mmHg 75%
    22:00 -6°C° 0 mm 6 mps 682 mmHg 75%
    23:00 -7°C° 0 mm 5 mps 682 mmHg 75%

    22 January, Monday

    Time Temperature Precipitation Wind Pressure Humidity
    00:00 -7°C° 0 mm 5 mps 683 mmHg 75%
    01:00 -8°C° 0 mm 5 mps 683 mmHg 75%
    02:00 -8°C° 0 mm 4 mps 683 mmHg 74%
    03:00 -8°C° 0 mm 4 mps 683 mmHg 74%
    04:00 -8°C° 0 mm 4 mps 683 mmHg 74%
    05:00 -9°C° 0 mm 4 mps 684 mmHg 74%
    06:00 -9°C° 0 mm 4 mps 684 mmHg 74%
    07:00 -9°C° 0 mm 4 mps 684 mmHg 74%
    08:00 -8°C° 0 mm 4 mps 685 mmHg 71%
    09:00 -5°C° 0 mm 4 mps 685 mmHg 68%
    10:00 -4°C° 0 mm 4 mps 686 mmHg 64%
    11:00 -2°C° 0 mm 3 mps 686 mmHg 61%
    12:00 -2°C° 0 mm 3 mps 686 mmHg 58%
    13:00 -1°C° 0 mm 3 mps 687 mmHg 54%
    14:00 -1°C° 0 mm 3 mps 687 mmHg 57%
    15:00 -2°C° 0 mm 3 mps 687 mmHg 61%
    16:00 -2°C° 0 mm 3 mps 687 mmHg 64%
    17:00 -4°C° 0 mm 3 mps 688 mmHg 67%
    18:00 -6°C° 0 mm 3 mps 688 mmHg 70%
    19:00 -7°C° 0 mm 3 mps 688 mmHg 74%
    20:00 -7°C° 0 mm 3 mps 689 mmHg 73%
    21:00 -7°C° 0 mm 3 mps 689 mmHg 72%
    22:00 -7°C° 0 mm 3 mps 689 mmHg 71%
    23:00 -7°C° 0 mm 3 mps 689 mmHg 69%

    23 January, Tuesday

    Time Temperature Precipitation Wind Pressure Humidity
    00:00 -7°C° 0 mm 3 mps 690 mmHg 67%
    01:00 -7°C° 0 mm 3 mps 690 mmHg 65%
    02:00 -7°C° 0 mm 3 mps 690 mmHg 62%
    03:00 -7°C° 0 mm 3 mps 690 mmHg 60%
    04:00 -7°C° 0 mm 3 mps 690 mmHg 57%
    05:00 -7°C° 0 mm 3 mps 690 mmHg 55%
    06:00 -7°C° 0 mm 3 mps 690 mmHg 53%
    07:00 -6°C° 0 mm 2 mps 691 mmHg 51%
    08:00 -4°C° 0 mm 2 mps 691 mmHg 49%
    09:00 -2°C° 0 mm 2 mps 691 mmHg 48%
    10:00 +2°C° 0 mm 1 mps 692 mmHg 46%
    11:00 +3°C° 0 mm 1 mps 692 mmHg 47%
    12:00 +4°C° 0 mm 1 mps 692 mmHg 48%
    13:00 +5°C° 0 mm 1 mps 692 mmHg 49%
    14:00 +5°C° 0 mm 1 mps 692 mmHg 53%
    15:00 +4°C° 0 mm 1 mps 692 mmHg 57%
    16:00 +3°C° 0 mm 1 mps 692 mmHg 62%
    17:00 +3°C° 0 mm 1 mps 692 mmHg 64%
    18:00 +1°C° 0 mm 2 mps 692 mmHg 67%
    19:00 +1°C° 0 mm 2 mps 692 mmHg 70%
    20:00 +1°C° 0 mm 2 mps 692 mmHg 72%
    21:00 +1°C° 0 mm 2 mps 692 mmHg 74%
    22:00 +1°C° 0 mm 2 mps 692 mmHg 76%
    23:00 +1°C° 0 mm 2 mps 692 mmHg 77%
    Show more